CZ-6A DEB, 54471

Orbit data source: Space-Track

CZ-6A DEB, 54471 is space debris in SSO originally from a launch on Fri, 11 Nov 2022 UTC launched from the Taiyaun Space Center, China (TSC). Debris objects in space refer to the collection of defunct objects orbiting the Earth. Examples of debris include non-operational satellites, rocket bodies, and fragments generated from explosions, collisions, or faulty payload assembly.

Loading next visibility...
Identifier
54471, 2022-151GX
Orbit
SSO
Country
Flag of CNCN / PRC
Related business
Manufacturer
SAST
Mission
Spacecraft
Bus & Motor
Unknown
Mass
Unknown
Launch date (UTC)
2022-11-11 (4 years ago)
Launch vehicle
Unknown
Launch site
Taiyaun Space Center, China (TSC)
Object type
Payload
Rocket body
Debris
Shape & HBR
Unknown shape, 0.1 m
Radar Cross Section
Small (<0.1 m²)

Expand to show TLE details & history
Last TLE update: 2 days ago

TLE from 2 days ago
0 CZ-6A DEB
1 54471U 22151GX  26171.13237536  .00007825  00000-0  12213-2 0  9992
2 54471  98.6090 236.2909 0070611 273.1362  86.1765 14.71492704190647
Epoch: 2026-06-20T03:10Z
TLE epoch observation values (Epoch: 2026-06-20T03:10:37.231Z)
Latitude
-0.00006°
Longitude
-79.71561°
Altitude
656.331 km
Speed
7.531 km/s
True Right ascension
15h 45m 09s
True Declination
0° 00' 00"
Sunlit
Object was in full shadow at epoch
Visualization orbit readout
Latitude
Unknown
Longitude
Unknown
Altitude
Unknown
Speed
Unknown
Apparent Right ascension
Unknown
Apparent Declination
Unknown
Sunlit
N/A
Visualization observer readout
Local Sidereal Time
21:31:13
Azimuth
Unknown
Elevation
Unknown
Doppler factor
Unknown
Orbital elements
Apogee altitude
703.042 km
Perigee altitude
603.742 km
Semi-major axis
7,031.529 km
Eccentricity
0.00706
Inclination
98.609°
RAAN
236.2909°
Arg. of periapsis
273.1362°
True anomaly
86.98429°
Mean anomaly
86.1765°
Eccentric anomaly
86.58035°
Mean motion
3.68102 °/min
Orbital period
97.8 mins
BSTAR
0.0012213
Loading maneuver chart data...
Computing Atmospheric mass density...
Loading historical data...
Loading historical data...
Loading historical data...
Loading historical data...
Loading historical data...
Loading historical data...
Loading historical data...

Documentation

Showing up to 5 results
|